owner,sensor,date,latitude,longitude,vertical_datum,mass_concentration_of_oxygen_in_sea_water,qcFlag 
DISL,ioos:station:DISL:KATA:1,2011-10-01T00:00:00Z,30.2583,-88.2131,4.406,3.31,1111122 
DISL,ioos:station:DISL:KATA:1,2011-10-01T00:30:00Z,30.2583,-88.2131,4.42,3.1,1111122 
DISL,ioos:station:DISL:KATA:1,2011-10-01T01:00:00Z,30.2583,-88.2131,4.439,2.35,1111122 
DISL,ioos:station:DISL:KATA:1,2011-10-01T01:30:00Z,30.2583,-88.2131,4.463,2.52,1111122 
DISL,ioos:station:DISL:KATA:1,2011-10-01T02:00:00Z,30.2583,-88.2131,4.486,2.41,1111122 
DISL,ioos:station:DISL:KATA:1,2011-10-01T02:30:00Z,30.2583,-88.2131,4.505,2.12,1111122 
DISL,ioos:station:DISL:KATA:1,2011-10-01T03:00:00Z,30.2583,-88.2131,4.518,2.08,1111122 
DISL,ioos:station:DISL:KATA:1,2011-10-01T03:30:00Z,30.2583,-88.2131,4.523,2.1,1111122 
DISL,ioos:station:DISL:KATA:1,2011-10-01T04:00:00Z,30.2583,-88.2131,4.541,2.85,1111122 
DISL,ioos:station:DISL:KATA:1,2011-10-01T04:30:00Z,30.2583,-88.2131,4.556,4.44,1111122 
DISL,ioos:station:DISL:KATA:1,2011-10-01T05:00:00Z,30.2583,-88.2131,4.584,4.86,1111122 
DISL,ioos:station:DISL:KATA:1,2011-10-01T05:30:00Z,30.2583,-88.2131,4.598,5.67,1111122 
DISL,ioos:station:DISL:KATA:1,2011-10-01T06:00:00Z,30.2583,-88.2131,4.583,5.32,1111122 
DISL,ioos:station:DISL:KATA:1,2011-10-01T06:30:00Z,30.2583,-88.2131,4.553,5.39,1111122 
DISL,ioos:station:DISL:KATA:1,2011-10-01T07:00:00Z,30.2583,-88.2131,4.544,5.0,1111122 
DISL,ioos:station:DISL:KATA:1,2011-10-01T07:30:00Z,30.2583,-88.2131,4.536,5.08,1111122 
DISL,ioos:station:DISL:KATA:1,2011-10-01T08:00:00Z,30.2583,-88.2131,4.511,4.71,1111122 
DISL,ioos:station:DISL:KATA:1,2011-10-01T08:30:00Z,30.2583,-88.2131,4.493,3.99,1111122 
DISL,ioos:station:DISL:KATA:1,2011-10-01T09:00:00Z,30.2583,-88.2131,4.449,3.72,1111122 
DISL,ioos:station:DISL:KATA:1,2011-10-01T09:30:00Z,30.2583,-88.2131,4.426,4.65,1111122 
DISL,ioos:station:DISL:KATA:1,2011-10-01T10:00:00Z,30.2583,-88.2131,4.407,5.04,1111122 
DISL,ioos:station:DISL:KATA:1,2011-10-01T10:30:00Z,30.2583,-88.2131,4.379,5.22,1111122 
DISL,ioos:station:DISL:KATA:1,2011-10-01T11:00:00Z,30.2583,-88.2131,4.342,5.24,1111122 
DISL,ioos:station:DISL:KATA:1,2011-10-01T11:30:00Z,30.2583,-88.2131,4.298,5.51,1111122 
DISL,ioos:station:DISL:KATA:1,2011-10-01T12:00:00Z,30.2583,-88.2131,4.25,5.82,1111122 
DISL,ioos:station:DISL:KATA:1,2011-10-01T12:30:00Z,30.2583,-88.2131,4.209,6.04,1111122 
DISL,ioos:station:DISL:KATA:1,2011-10-01T13:00:00Z,30.2583,-88.2131,4.178,6.19,1111122 
DISL,ioos:station:DISL:KATA:1,2011-10-01T13:30:00Z,30.2583,-88.2131,4.156,6.18,1111122 
DISL,ioos:station:DISL:KATA:1,2011-10-01T14:00:00Z,30.2583,-88.2131,4.139,6.27,1111122 
DISL,ioos:station:DISL:KATA:1,2011-10-01T14:30:00Z,30.2583,-88.2131,4.135,6.46,1111122 
DISL,ioos:station:DISL:KATA:1,2011-10-01T15:00:00Z,30.2583,-88.2131,4.12,6.41,1111122 
DISL,ioos:station:DISL:KATA:1,2011-10-01T15:30:00Z,30.2583,-88.2131,4.121,6.38,1111122 
DISL,ioos:station:DISL:KATA:1,2011-10-01T16:00:00Z,30.2583,-88.2131,4.129,6.2,1111122 
DISL,ioos:station:DISL:KATA:1,2011-10-01T16:30:00Z,30.2583,-88.2131,4.143,6.12,1111122 
DISL,ioos:station:DISL:KATA:1,2011-10-01T17:00:00Z,30.2583,-88.2131,4.153,5.85,1111122 
DISL,ioos:station:DISL:KATA:1,2011-10-01T17:30:00Z,30.2583,-88.2131,4.178,4.72,1111122 
DISL,ioos:station:DISL:KATA:1,2011-10-01T18:00:00Z,30.2583,-88.2131,4.186,4.18,1111122 
DISL,ioos:station:DISL:KATA:1,2011-10-01T18:30:00Z,30.2583,-88.2131,4.199,5.24,1111122 
DISL,ioos:station:DISL:KATA:1,2011-10-01T19:00:00Z,30.2583,-88.2131,4.197,5.16,1111122 
DISL,ioos:station:DISL:KATA:1,2011-10-01T19:30:00Z,30.2583,-88.2131,4.218,4.75,1111122 
DISL,ioos:station:DISL:KATA:1,2011-10-01T20:00:00Z,30.2583,-88.2131,4.228,3.91,1111122 
DISL,ioos:station:DISL:KATA:1,2011-10-01T20:30:00Z,30.2583,-88.2131,4.241,3.92,1111122 
DISL,ioos:station:DISL:KATA:1,2011-10-01T21:00:00Z,30.2583,-88.2131,4.26,3.9,1111122 
DISL,ioos:station:DISL:KATA:1,2011-10-01T21:30:00Z,30.2583,-88.2131,4.273,4.02,1111122 
DISL,ioos:station:DISL:KATA:1,2011-10-01T22:00:00Z,30.2583,-88.2131,4.29,4.01,1111122 
DISL,ioos:station:DISL:KATA:1,2011-10-01T22:30:00Z,30.2583,-88.2131,4.315,3.91,1111122 
DISL,ioos:station:DISL:KATA:1,2011-10-01T23:00:00Z,30.2583,-88.2131,4.31,3.48,1111122 
DISL,ioos:station:DISL:KATA:1,2011-10-01T23:30:00Z,30.2583,-88.2131,4.313,3.54,1111122 
DISL,ioos:station:DISL:KATA:1,2011-10-02T00:00:00Z,30.2583,-88.2131,4.341,3.61,1111122 
DISL,ioos:station:DISL:KATA:1,2011-10-02T00:30:00Z,30.2583,-88.2131,4.374,3.89,1111122 
DISL,ioos:station:DISL:KATA:1,2011-10-02T01:00:00Z,30.2583,-88.2131,4.398,4.52,1111122 
DISL,ioos:station:DISL:KATA:1,2011-10-02T01:30:00Z,30.2583,-88.2131,4.415,4.39,1111122 
DISL,ioos:station:DISL:KATA:1,2011-10-02T02:00:00Z,30.2583,-88.2131,4.426,4.18,1111122 
DISL,ioos:station:DISL:KATA:1,2011-10-02T02:30:00Z,30.2583,-88.2131,4.437,4.54,1111122 
DISL,ioos:station:DISL:KATA:1,2011-10-02T03:00:00Z,30.2583,-88.2131,4.458,4.84,1111122 
DISL,ioos:station:DISL:KATA:1,2011-10-02T03:30:00Z,30.2583,-88.2131,4.476,4.88,1111122 
DISL,ioos:station:DISL:KATA:1,2011-10-02T04:00:00Z,30.2583,-88.2131,4.485,4.63,1111122 
DISL,ioos:station:DISL:KATA:1,2011-10-02T04:30:00Z,30.2583,-88.2131,4.492,4.4,1111122 
DISL,ioos:station:DISL:KATA:1,2011-10-02T05:00:00Z,30.2583,-88.2131,4.506,4.21,1111122 
DISL,ioos:station:DISL:KATA:1,2011-10-02T05:30:00Z,30.2583,-88.2131,4.536,4.3,1111122 
DISL,ioos:station:DISL:KATA:1,2011-10-02T06:00:00Z,30.2583,-88.2131,4.544,4.84,1111122 
DISL,ioos:station:DISL:KATA:1,2011-10-02T06:30:00Z,30.2583,-88.2131,4.548,5.08,1111122 
DISL,ioos:station:DISL:KATA:1,2011-10-02T07:00:00Z,30.2583,-88.2131,4.554,5.0,1111122 
DISL,ioos:station:DISL:KATA:1,2011-10-02T07:30:00Z,30.2583,-88.2131,4.56,4.89,1111122 
DISL,ioos:station:DISL:KATA:1,2011-10-02T08:00:00Z,30.2583,-88.2131,4.56,4.59,1111122 
DISL,ioos:station:DISL:KATA:1,2011-10-02T08:30:00Z,30.2583,-88.2131,4.565,4.49,1111122 
DISL,ioos:station:DISL:KATA:1,2011-10-02T09:00:00Z,30.2583,-88.2131,4.564,4.5,1111122 
DISL,ioos:station:DISL:KATA:1,2011-10-02T09:30:00Z,30.2583,-88.2131,4.555,4.43,1111122 
DISL,ioos:station:DISL:KATA:1,2011-10-02T10:00:00Z,30.2583,-88.2131,4.53,3.97,1111122 
DISL,ioos:station:DISL:KATA:1,2011-10-02T10:30:00Z,30.2583,-88.2131,4.508,3.08,1111122 
DISL,ioos:station:DISL:KATA:1,2011-10-02T11:00:00Z,30.2583,-88.2131,4.468,3.54,1111122 
DISL,ioos:station:DISL:KATA:1,2011-10-02T11:30:00Z,30.2583,-88.2131,4.416,5.21,1111122 
DISL,ioos:station:DISL:KATA:1,2011-10-02T12:00:00Z,30.2583,-88.2131,4.369,5.46,1111122 
DISL,ioos:station:DISL:KATA:1,2011-10-02T12:30:00Z,30.2583,-88.2131,4.317,5.83,1111122 
DISL,ioos:station:DISL:KATA:1,2011-10-02T13:00:00Z,30.2583,-88.2131,4.268,5.91,1111122 
DISL,ioos:station:DISL:KATA:1,2011-10-02T13:30:00Z,30.2583,-88.2131,4.224,5.96,1111122 
DISL,ioos:station:DISL:KATA:1,2011-10-02T14:00:00Z,30.2583,-88.2131,4.196,6.29,1111122 
DISL,ioos:station:DISL:KATA:1,2011-10-02T14:30:00Z,30.2583,-88.2131,4.162,6.3,1111122 
DISL,ioos:station:DISL:KATA:1,2011-10-02T15:00:00Z,30.2583,-88.2131,4.138,6.25,1111122 
DISL,ioos:station:DISL:KATA:1,2011-10-02T15:30:00Z,30.2583,-88.2131,4.13,6.53,1111122 
DISL,ioos:station:DISL:KATA:1,2011-10-02T16:00:00Z,30.2583,-88.2131,4.12,6.51,1111122 
DISL,ioos:station:DISL:KATA:1,2011-10-02T16:30:00Z,30.2583,-88.2131,4.115,6.54,1111122 
DISL,ioos:station:DISL:KATA:1,2011-10-02T17:00:00Z,30.2583,-88.2131,4.124,6.51,1111122 
DISL,ioos:station:DISL:KATA:1,2011-10-02T17:30:00Z,30.2583,-88.2131,4.132,6.56,1111122 
DISL,ioos:station:DISL:KATA:1,2011-10-02T18:00:00Z,30.2583,-88.2131,4.144,6.66,1111122 
DISL,ioos:station:DISL:KATA:1,2011-10-02T18:30:00Z,30.2583,-88.2131,4.151,6.69,1111122 
DISL,ioos:station:DISL:KATA:1,2011-10-02T19:00:00Z,30.2583,-88.2131,4.153,6.68,1111122 
DISL,ioos:station:DISL:KATA:1,2011-10-02T19:30:00Z,30.2583,-88.2131,4.148,6.66,1111122 
DISL,ioos:station:DISL:KATA:1,2011-10-02T20:00:00Z,30.2583,-88.2131,4.147,6.48,1111122 
DISL,ioos:station:DISL:KATA:1,2011-10-02T20:30:00Z,30.2583,-88.2131,4.149,5.96,1111122 
DISL,ioos:station:DISL:KATA:1,2011-10-02T21:00:00Z,30.2583,-88.2131,4.156,5.25,1111122 
DISL,ioos:station:DISL:KATA:1,2011-10-02T21:30:00Z,30.2583,-88.2131,4.173,4.56,1111122 
DISL,ioos:station:DISL:KATA:1,2011-10-02T22:00:00Z,30.2583,-88.2131,4.194,4.12,1111122 
DISL,ioos:station:DISL:KATA:1,2011-10-02T22:30:00Z,30.2583,-88.2131,4.22,3.06,1111122 
DISL,ioos:station:DISL:KATA:1,2011-10-02T23:00:00Z,30.2583,-88.2131,4.249,2.58,1111122 
DISL,ioos:station:DISL:KATA:1,2011-10-02T23:30:00Z,30.2583,-88.2131,4.285,5.69,1111122 
DISL,ioos:station:DISL:KATA:1,2011-10-03T00:00:00Z,30.2583,-88.2131,4.313,5.82,1111122 
DISL,ioos:station:DISL:KATA:1,2011-10-03T00:30:00Z,30.2583,-88.2131,4.333,5.57,1111122 
DISL,ioos:station:DISL:KATA:1,2011-10-03T01:00:00Z,30.2583,-88.2131,4.356,4.55,1111122 
DISL,ioos:station:DISL:KATA:1,2011-10-03T01:30:00Z,30.2583,-88.2131,4.381,4.84,1111122 
DISL,ioos:station:DISL:KATA:1,2011-10-03T02:00:00Z,30.2583,-88.2131,4.402,4.15,1111122 
DISL,ioos:station:DISL:KATA:1,2011-10-03T02:30:00Z,30.2583,-88.2131,4.418,4.16,1111122 
DISL,ioos:station:DISL:KATA:1,2011-10-03T03:00:00Z,30.2583,-88.2131,4.434,3.75,1111122 
DISL,ioos:station:DISL:KATA:1,2011-10-03T03:30:00Z,30.2583,-88.2131,4.456,3.45,1111122 
DISL,ioos:station:DISL:KATA:1,2011-10-03T04:00:00Z,30.2583,-88.2131,4.478,4.79,1111122 
DISL,ioos:station:DISL:KATA:1,2011-10-03T04:30:00Z,30.2583,-88.2131,4.502,5.3,1111122 
DISL,ioos:station:DISL:KATA:1,2011-10-03T05:00:00Z,30.2583,-88.2131,4.516,5.69,1111122 
DISL,ioos:station:DISL:KATA:1,2011-10-03T05:30:00Z,30.2583,-88.2131,4.525,5.61,1111122 
DISL,ioos:station:DISL:KATA:1,2011-10-03T06:00:00Z,30.2583,-88.2131,4.534,5.7,1111122 
DISL,ioos:station:DISL:KATA:1,2011-10-03T06:30:00Z,30.2583,-88.2131,4.538,5.49,1111122 
DISL,ioos:station:DISL:KATA:1,2011-10-03T07:00:00Z,30.2583,-88.2131,4.541,5.49,1111122 
DISL,ioos:station:DISL:KATA:1,2011-10-03T07:30:00Z,30.2583,-88.2131,4.543,5.28,1111122 
DISL,ioos:station:DISL:KATA:1,2011-10-03T08:00:00Z,30.2583,-88.2131,4.54,5.04,1111122 
DISL,ioos:station:DISL:KATA:1,2011-10-03T08:30:00Z,30.2583,-88.2131,4.531,5.35,1111122 
DISL,ioos:station:DISL:KATA:1,2011-10-03T09:00:00Z,30.2583,-88.2131,4.528,5.29,1111122 
DISL,ioos:station:DISL:KATA:1,2011-10-03T09:30:00Z,30.2583,-88.2131,4.51,5.21,1111122 
DISL,ioos:station:DISL:KATA:1,2011-10-03T10:00:00Z,30.2583,-88.2131,4.487,4.82,1111122 
DISL,ioos:station:DISL:KATA:1,2011-10-03T10:30:00Z,30.2583,-88.2131,4.475,4.53,1111122 
DISL,ioos:station:DISL:KATA:1,2011-10-03T11:00:00Z,30.2583,-88.2131,4.462,5.0,1111122 
DISL,ioos:station:DISL:KATA:1,2011-10-03T11:30:00Z,30.2583,-88.2131,4.444,5.27,1111122 
DISL,ioos:station:DISL:KATA:1,2011-10-03T12:00:00Z,30.2583,-88.2131,4.417,5.72,1111122 
DISL,ioos:station:DISL:KATA:1,2011-10-03T12:30:00Z,30.2583,-88.2131,4.378,5.93,1111122 
DISL,ioos:station:DISL:KATA:1,2011-10-03T13:00:00Z,30.2583,-88.2131,4.337,6.17,1111122 
DISL,ioos:station:DISL:KATA:1,2011-10-03T13:30:00Z,30.2583,-88.2131,4.286,6.35,1111122 
DISL,ioos:station:DISL:KATA:1,2011-10-03T14:00:00Z,30.2583,-88.2131,4.244,6.42,1111122 
DISL,ioos:station:DISL:KATA:1,2011-10-03T14:30:00Z,30.2583,-88.2131,4.208,6.52,1111122 
DISL,ioos:station:DISL:KATA:1,2011-10-03T15:00:00Z,30.2583,-88.2131,4.176,6.61,1111122 
DISL,ioos:station:DISL:KATA:1,2011-10-03T15:30:00Z,30.2583,-88.2131,4.15,6.7,1111122 
DISL,ioos:station:DISL:KATA:1,2011-10-03T16:00:00Z,30.2583,-88.2131,4.133,6.66,1111122 
DISL,ioos:station:DISL:KATA:1,2011-10-03T16:30:00Z,30.2583,-88.2131,4.125,6.7,1111122 
DISL,ioos:station:DISL:KATA:1,2011-10-03T17:00:00Z,30.2583,-88.2131,4.118,6.59,1111122 
DISL,ioos:station:DISL:KATA:1,2011-10-03T17:30:00Z,30.2583,-88.2131,4.114,6.22,1111122 
DISL,ioos:station:DISL:KATA:1,2011-10-03T18:00:00Z,30.2583,-88.2131,4.113,5.78,1111122 
DISL,ioos:station:DISL:KATA:1,2011-10-03T18:30:00Z,30.2583,-88.2131,4.113,6.51,1111122 
DISL,ioos:station:DISL:KATA:1,2011-10-03T19:00:00Z,30.2583,-88.2131,4.119,6.67,1111122 
DISL,ioos:station:DISL:KATA:1,2011-10-03T19:30:00Z,30.2583,-88.2131,4.124,6.48,1111122 
DISL,ioos:station:DISL:KATA:1,2011-10-03T20:00:00Z,30.2583,-88.2131,4.128,6.44,1111122 
DISL,ioos:station:DISL:KATA:1,2011-10-03T20:30:00Z,30.2583,-88.2131,4.124,6.38,1111122 
DISL,ioos:station:DISL:KATA:1,2011-10-03T21:00:00Z,30.2583,-88.2131,4.13,6.15,1111122 
DISL,ioos:station:DISL:KATA:1,2011-10-03T21:30:00Z,30.2583,-88.2131,4.135,6.25,1111122 
DISL,ioos:station:DISL:KATA:1,2011-10-03T22:00:00Z,30.2583,-88.2131,4.156,6.49,1111122 
DISL,ioos:station:DISL:KATA:1,2011-10-03T22:30:00Z,30.2583,-88.2131,4.179,6.4,1111122 
DISL,ioos:station:DISL:KATA:1,2011-10-03T23:00:00Z,30.2583,-88.2131,4.204,6.34,1111122 
DISL,ioos:station:DISL:KATA:1,2011-10-03T23:30:00Z,30.2583,-88.2131,4.232,6.26,1111122 
DISL,ioos:station:DISL:KATA:1,2011-10-04T00:00:00Z,30.2583,-88.2131,4.262,6.42,1111122 
DISL,ioos:station:DISL:KATA:1,2011-10-04T00:30:00Z,30.2583,-88.2131,4.286,6.25,1111122 
DISL,ioos:station:DISL:KATA:1,2011-10-04T01:00:00Z,30.2583,-88.2131,4.32,6.13,1111122 
DISL,ioos:station:DISL:KATA:1,2011-10-04T01:30:00Z,30.2583,-88.2131,4.351,5.61,1111122 
DISL,ioos:station:DISL:KATA:1,2011-10-04T02:00:00Z,30.2583,-88.2131,4.376,5.83,1111122 
DISL,ioos:station:DISL:KATA:1,2011-10-04T02:30:00Z,30.2583,-88.2131,4.403,5.6,1111122 
DISL,ioos:station:DISL:KATA:1,2011-10-04T03:00:00Z,30.2583,-88.2131,4.424,5.47,1111122 
DISL,ioos:station:DISL:KATA:1,2011-10-04T03:30:00Z,30.2583,-88.2131,4.454,6.13,1111122 
DISL,ioos:station:DISL:KATA:1,2011-10-04T04:00:00Z,30.2583,-88.2131,4.479,6.21,1111122 
DISL,ioos:station:DISL:KATA:1,2011-10-04T04:30:00Z,30.2583,-88.2131,4.498,6.47,1111122 
DISL,ioos:station:DISL:KATA:1,2011-10-04T05:00:00Z,30.2583,-88.2131,4.501,6.41,1111122 
DISL,ioos:station:DISL:KATA:1,2011-10-04T05:30:00Z,30.2583,-88.2131,4.508,6.57,1111122 
DISL,ioos:station:DISL:KATA:1,2011-10-04T06:00:00Z,30.2583,-88.2131,4.517,6.5,1111122 
DISL,ioos:station:DISL:KATA:1,2011-10-04T06:30:00Z,30.2583,-88.2131,4.53,6.54,1111122 
DISL,ioos:station:DISL:KATA:1,2011-10-04T07:00:00Z,30.2583,-88.2131,4.552,6.46,1111122 
DISL,ioos:station:DISL:KATA:1,2011-10-04T07:30:00Z,30.2583,-88.2131,4.572,6.41,1111122 
DISL,ioos:station:DISL:KATA:1,2011-10-04T08:00:00Z,30.2583,-88.2131,4.583,6.42,1111122 
DISL,ioos:station:DISL:KATA:1,2011-10-04T08:30:00Z,30.2583,-88.2131,4.576,6.29,1111122 
DISL,ioos:station:DISL:KATA:1,2011-10-04T09:00:00Z,30.2583,-88.2131,4.559,6.1,1111122 
DISL,ioos:station:DISL:KATA:1,2011-10-04T09:30:00Z,30.2583,-88.2131,4.545,6.14,1111122 
DISL,ioos:station:DISL:KATA:1,2011-10-04T10:00:00Z,30.2583,-88.2131,4.52,5.77,1111122 
DISL,ioos:station:DISL:KATA:1,2011-10-04T10:30:00Z,30.2583,-88.2131,4.5,5.49,1111122 
DISL,ioos:station:DISL:KATA:1,2011-10-04T11:00:00Z,30.2583,-88.2131,4.487,4.75,1111122 
DISL,ioos:station:DISL:KATA:1,2011-10-04T11:30:00Z,30.2583,-88.2131,4.47,4.78,1111122 
DISL,ioos:station:DISL:KATA:1,2011-10-04T12:00:00Z,30.2583,-88.2131,4.457,5.97,1111122 
DISL,ioos:station:DISL:KATA:1,2011-10-04T12:30:00Z,30.2583,-88.2131,4.44,6.27,1111122 
DISL,ioos:station:DISL:KATA:1,2011-10-04T13:00:00Z,30.2583,-88.2131,4.427,5.91,1111122 
DISL,ioos:station:DISL:KATA:1,2011-10-04T13:30:00Z,30.2583,-88.2131,4.407,5.05,1111122 
DISL,ioos:station:DISL:KATA:1,2011-10-04T14:00:00Z,30.2583,-88.2131,4.371,6.16,1111122 
DISL,ioos:station:DISL:KATA:1,2011-10-04T14:30:00Z,30.2583,-88.2131,4.34,6.47,1111122 
DISL,ioos:station:DISL:KATA:1,2011-10-04T15:00:00Z,30.2583,-88.2131,4.302,6.52,1111122 
DISL,ioos:station:DISL:KATA:1,2011-10-04T15:30:00Z,30.2583,-88.2131,4.267,6.52,1111122 
DISL,ioos:station:DISL:KATA:1,2011-10-04T16:00:00Z,30.2583,-88.2131,4.232,6.49,1111122 
DISL,ioos:station:DISL:KATA:1,2011-10-04T16:30:00Z,30.2583,-88.2131,4.207,6.67,1111122 
DISL,ioos:station:DISL:KATA:1,2011-10-04T17:00:00Z,30.2583,-88.2131,4.186,6.71,1111122 
DISL,ioos:station:DISL:KATA:1,2011-10-04T17:30:00Z,30.2583,-88.2131,4.175,6.23,1111122 
DISL,ioos:station:DISL:KATA:1,2011-10-04T18:00:00Z,30.2583,-88.2131,4.169,5.93,1111122 
DISL,ioos:station:DISL:KATA:1,2011-10-04T18:30:00Z,30.2583,-88.2131,4.16,6.73,1111122 
DISL,ioos:station:DISL:KATA:1,2011-10-04T19:00:00Z,30.2583,-88.2131,4.157,7.01,1111122 
DISL,ioos:station:DISL:KATA:1,2011-10-04T19:30:00Z,30.2583,-88.2131,4.165,7.05,1111122 
DISL,ioos:station:DISL:KATA:1,2011-10-04T20:00:00Z,30.2583,-88.2131,4.167,7.17,1111122 
DISL,ioos:station:DISL:KATA:1,2011-10-04T20:30:00Z,30.2583,-88.2131,4.169,7.06,1111122 
DISL,ioos:station:DISL:KATA:1,2011-10-04T21:00:00Z,30.2583,-88.2131,4.173,6.76,1111122 
DISL,ioos:station:DISL:KATA:1,2011-10-04T21:30:00Z,30.2583,-88.2131,4.179,6.49,1111122 
DISL,ioos:station:DISL:KATA:1,2011-10-04T22:00:00Z,30.2583,-88.2131,4.19,6.34,1111122 
DISL,ioos:station:DISL:KATA:1,2011-10-04T22:30:00Z,30.2583,-88.2131,4.199,5.77,1111122 
DISL,ioos:station:DISL:KATA:1,2011-10-04T23:00:00Z,30.2583,-88.2131,4.213,5.47,1111122 
DISL,ioos:station:DISL:KATA:1,2011-10-04T23:30:00Z,30.2583,-88.2131,4.228,5.75,1111122 
DISL,ioos:station:DISL:KATA:1,2011-10-05T00:00:00Z,30.2583,-88.2131,4.26,5.44,1111122 
DISL,ioos:station:DISL:KATA:1,2011-10-05T00:30:00Z,30.2583,-88.2131,4.284,5.52,1111122 
DISL,ioos:station:DISL:KATA:1,2011-10-05T01:00:00Z,30.2583,-88.2131,4.316,4.41,1111122 
DISL,ioos:station:DISL:KATA:1,2011-10-05T01:30:00Z,30.2583,-88.2131,4.358,5.0,1111122 
DISL,ioos:station:DISL:KATA:1,2011-10-05T02:00:00Z,30.2583,-88.2131,4.389,5.07,1111122 
DISL,ioos:station:DISL:KATA:1,2011-10-05T02:30:00Z,30.2583,-88.2131,4.412,4.87,1111122 
DISL,ioos:station:DISL:KATA:1,2011-10-05T03:00:00Z,30.2583,-88.2131,4.438,4.63,1111122 
DISL,ioos:station:DISL:KATA:1,2011-10-05T03:30:00Z,30.2583,-88.2131,4.465,4.99,1111122 
DISL,ioos:station:DISL:KATA:1,2011-10-05T04:00:00Z,30.2583,-88.2131,4.484,4.95,1111122 
DISL,ioos:station:DISL:KATA:1,2011-10-05T04:30:00Z,30.2583,-88.2131,4.502,5.38,1111122 
DISL,ioos:station:DISL:KATA:1,2011-10-05T05:00:00Z,30.2583,-88.2131,4.519,5.67,1111122 
DISL,ioos:station:DISL:KATA:1,2011-10-05T05:30:00Z,30.2583,-88.2131,4.535,5.41,1111122 
DISL,ioos:station:DISL:KATA:1,2011-10-05T06:00:00Z,30.2583,-88.2131,4.545,5.25,1111122 
DISL,ioos:station:DISL:KATA:1,2011-10-05T06:30:00Z,30.2583,-88.2131,4.558,5.38,1111122 
DISL,ioos:station:DISL:KATA:1,2011-10-05T07:00:00Z,30.2583,-88.2131,4.574,5.23,1111122 
DISL,ioos:station:DISL:KATA:1,2011-10-05T07:30:00Z,30.2583,-88.2131,4.593,5.41,1111122 
DISL,ioos:station:DISL:KATA:1,2011-10-05T08:00:00Z,30.2583,-88.2131,4.609,5.28,1111122 
DISL,ioos:station:DISL:KATA:1,2011-10-05T08:30:00Z,30.2583,-88.2131,4.621,5.25,1111122 
DISL,ioos:station:DISL:KATA:1,2011-10-05T09:00:00Z,30.2583,-88.2131,4.627,5.11,1111122 
DISL,ioos:station:DISL:KATA:1,2011-10-05T09:30:00Z,30.2583,-88.2131,4.629,5.04,1111122 
DISL,ioos:station:DISL:KATA:1,2011-10-05T10:00:00Z,30.2583,-88.2131,4.616,4.95,1111122 
DISL,ioos:station:DISL:KATA:1,2011-10-05T10:30:00Z,30.2583,-88.2131,4.602,4.83,1111122 
DISL,ioos:station:DISL:KATA:1,2011-10-05T11:00:00Z,30.2583,-88.2131,4.579,5.11,1111122 
DISL,ioos:station:DISL:KATA:1,2011-10-05T11:30:00Z,30.2583,-88.2131,4.561,5.14,1111122 
DISL,ioos:station:DISL:KATA:1,2011-10-05T12:00:00Z,30.2583,-88.2131,4.546,5.1,1111122 
DISL,ioos:station:DISL:KATA:1,2011-10-05T12:30:00Z,30.2583,-88.2131,4.533,5.14,1111122 
DISL,ioos:station:DISL:KATA:1,2011-10-05T13:00:00Z,30.2583,-88.2131,4.508,4.7,1111122 
DISL,ioos:station:DISL:KATA:1,2011-10-05T13:30:00Z,30.2583,-88.2131,4.488,4.98,1111122 
DISL,ioos:station:DISL:KATA:1,2011-10-05T14:00:00Z,30.2583,-88.2131,4.459,4.76,1111122 
DISL,ioos:station:DISL:KATA:1,2011-10-05T14:30:00Z,30.2583,-88.2131,4.435,4.81,1111122 
DISL,ioos:station:DISL:KATA:1,2011-10-05T15:00:00Z,30.2583,-88.2131,4.404,5.07,1111122 
DISL,ioos:station:DISL:KATA:1,2011-10-05T15:30:00Z,30.2583,-88.2131,4.372,5.0,1111122 
DISL,ioos:station:DISL:KATA:1,2011-10-05T16:00:00Z,30.2583,-88.2131,4.343,5.14,1111122 
DISL,ioos:station:DISL:KATA:1,2011-10-05T16:30:00Z,30.2583,-88.2131,4.314,5.14,1111122 
DISL,ioos:station:DISL:KATA:1,2011-10-05T17:00:00Z,30.2583,-88.2131,4.283,4.32,1111122 
DISL,ioos:station:DISL:KATA:1,2011-10-05T17:30:00Z,30.2583,-88.2131,4.256,4.34,1111122 
DISL,ioos:station:DISL:KATA:1,2011-10-05T18:00:00Z,30.2583,-88.2131,4.241,4.03,1111122 
DISL,ioos:station:DISL:KATA:1,2011-10-05T18:30:00Z,30.2583,-88.2131,4.221,4.37,1111122 
DISL,ioos:station:DISL:KATA:1,2011-10-05T19:00:00Z,30.2583,-88.2131,4.207,4.8,1111122 
DISL,ioos:station:DISL:KATA:1,2011-10-05T19:30:00Z,30.2583,-88.2131,4.2,3.07,1111122 
DISL,ioos:station:DISL:KATA:1,2011-10-05T20:00:00Z,30.2583,-88.2131,4.191,4.4,1111122 
DISL,ioos:station:DISL:KATA:1,2011-10-05T20:30:00Z,30.2583,-88.2131,4.188,4.48,1111122 
DISL,ioos:station:DISL:KATA:1,2011-10-05T21:00:00Z,30.2583,-88.2131,4.199,4.44,1111122 
DISL,ioos:station:DISL:KATA:1,2011-10-05T21:30:00Z,30.2583,-88.2131,4.207,4.47,1111122 
DISL,ioos:station:DISL:KATA:1,2011-10-05T22:00:00Z,30.2583,-88.2131,4.219,4.32,1111122 
DISL,ioos:station:DISL:KATA:1,2011-10-05T22:30:00Z,30.2583,-88.2131,4.226,4.02,1111122 
DISL,ioos:station:DISL:KATA:1,2011-10-05T23:00:00Z,30.2583,-88.2131,4.234,3.6,1111122 
DISL,ioos:station:DISL:KATA:1,2011-10-05T23:30:00Z,30.2583,-88.2131,4.246,3.65,1111122 
DISL,ioos:station:DISL:KATA:1,2011-10-06T00:00:00Z,30.2583,-88.2131,4.261,3.64,1111122 
DISL,ioos:station:DISL:KATA:1,2011-10-06T00:30:00Z,30.2583,-88.2131,4.27,3.42,1111122 
DISL,ioos:station:DISL:KATA:1,2011-10-06T01:00:00Z,30.2583,-88.2131,4.291,3.58,1111122 
DISL,ioos:station:DISL:KATA:1,2011-10-06T01:30:00Z,30.2583,-88.2131,4.311,3.46,1111122 
DISL,ioos:station:DISL:KATA:1,2011-10-06T02:00:00Z,30.2583,-88.2131,4.346,3.76,1111122 
DISL,ioos:station:DISL:KATA:1,2011-10-06T02:30:00Z,30.2583,-88.2131,4.378,3.61,1111122 
DISL,ioos:station:DISL:KATA:1,2011-10-06T03:00:00Z,30.2583,-88.2131,4.403,3.62,1111122 
DISL,ioos:station:DISL:KATA:1,2011-10-06T03:30:00Z,30.2583,-88.2131,4.425,3.67,1111122 
DISL,ioos:station:DISL:KATA:1,2011-10-06T04:00:00Z,30.2583,-88.2131,4.447,3.73,1111122 
DISL,ioos:station:DISL:KATA:1,2011-10-06T04:30:00Z,30.2583,-88.2131,4.459,4.18,1111122 
DISL,ioos:station:DISL:KATA:1,2011-10-06T05:00:00Z,30.2583,-88.2131,4.463,4.01,1111122 
DISL,ioos:station:DISL:KATA:1,2011-10-06T05:30:00Z,30.2583,-88.2131,4.468,3.99,1111122 
DISL,ioos:station:DISL:KATA:1,2011-10-06T06:00:00Z,30.2583,-88.2131,4.48,4.22,1111122 
DISL,ioos:station:DISL:KATA:1,2011-10-06T06:30:00Z,30.2583,-88.2131,4.498,4.89,1111122 
DISL,ioos:station:DISL:KATA:1,2011-10-06T07:00:00Z,30.2583,-88.2131,4.523,4.77,1111122 
DISL,ioos:station:DISL:KATA:1,2011-10-06T07:30:00Z,30.2583,-88.2131,4.551,4.23,1111122 
DISL,ioos:station:DISL:KATA:1,2011-10-06T08:00:00Z,30.2583,-88.2131,4.571,3.87,1111122 
DISL,ioos:station:DISL:KATA:1,2011-10-06T08:30:00Z,30.2583,-88.2131,4.595,4.2,1111122 
DISL,ioos:station:DISL:KATA:1,2011-10-06T09:00:00Z,30.2583,-88.2131,4.594,4.16,1111122 
DISL,ioos:station:DISL:KATA:1,2011-10-06T09:30:00Z,30.2583,-88.2131,4.593,4.3,1111122 
DISL,ioos:station:DISL:KATA:1,2011-10-06T10:00:00Z,30.2583,-88.2131,4.592,4.13,1111122 
DISL,ioos:station:DISL:KATA:1,2011-10-06T10:30:00Z,30.2583,-88.2131,4.582,4.26,1111122 
DISL,ioos:station:DISL:KATA:1,2011-10-06T11:00:00Z,30.2583,-88.2131,4.574,3.68,1111122 
DISL,ioos:station:DISL:KATA:1,2011-10-06T11:30:00Z,30.2583,-88.2131,4.572,3.3,1111122 
DISL,ioos:station:DISL:KATA:1,2011-10-06T12:00:00Z,30.2583,-88.2131,4.574,3.68,1111122 
DISL,ioos:station:DISL:KATA:1,2011-10-06T12:30:00Z,30.2583,-88.2131,4.578,3.33,1111122 
DISL,ioos:station:DISL:KATA:1,2011-10-06T13:00:00Z,30.2583,-88.2131,4.585,3.64,1111122 
DISL,ioos:station:DISL:KATA:1,2011-10-06T13:30:00Z,30.2583,-88.2131,4.601,4.13,1111122 
DISL,ioos:station:DISL:KATA:1,2011-10-06T14:00:00Z,30.2583,-88.2131,4.583,3.69,1111122 
DISL,ioos:station:DISL:KATA:1,2011-10-06T14:30:00Z,30.2583,-88.2131,4.561,4.2,1111122 
DISL,ioos:station:DISL:KATA:1,2011-10-06T15:00:00Z,30.2583,-88.2131,4.537,4.44,1111122 
DISL,ioos:station:DISL:KATA:1,2011-10-06T15:30:00Z,30.2583,-88.2131,4.507,4.26,1111122 